When you browse on this site, cookies collect data to enhance your experience and personalize the content and advertising you see.
Visit our Privacy Policy to learn more. By continuing to use the site, you agree to this use of cookies and data.
  • Em Portugal
  • Lista de países
  • Para 7 dias
  • Temperatura da água
  • Mapa do tempo
  • Widgets de tempo
  • user-avatar
    Iniciar Sessão

    Previsão horária em Sinemorec

    Hoje, 19 Novembro, Terça-feira

    Tempo Temperatura Precipitação Vento Pressão Humidade
    00:00 +16°C° 0 mm 1 m/s 764 mmHg 80%
    01:00 +16°C° 0 mm 1 m/s 764 mmHg 81%
    02:00 +16°C° 0 mm 1 m/s 764 mmHg 85%
    03:00 +16°C° 0 mm 1 m/s 765 mmHg 85%
    04:00 +16°C° 0 mm 1 m/s 765 mmHg 84%
    05:00 +15°C° 0 mm 1 m/s 765 mmHg 84%
    06:00 +16°C° 0 mm 1 m/s 765 mmHg 81%
    07:00 +16°C° 0 mm 1 m/s 765 mmHg 79%
    08:00 +16°C° 0 mm 1 m/s 765 mmHg 76%
    09:00 +19°C° 0 mm 1 m/s 765 mmHg 70%
    10:00 +20°C° 0 mm 1 m/s 765 mmHg 64%
    11:00 +22°C° 0 mm 1 m/s 766 mmHg 59%
    12:00 +22°C° 0 mm 1 m/s 765 mmHg 58%
    13:00 +22°C° 0 mm 1 m/s 765 mmHg 58%
    14:00 +21°C° 0 mm 2 m/s 764 mmHg 57%
    15:00 +20°C° 0 mm 2 m/s 764 mmHg 62%
    16:00 +19°C° 0 mm 2 m/s 764 mmHg 67%
    17:00 +17°C° 0 mm 2 m/s 764 mmHg 71%
    18:00 +17°C° 0 mm 2 m/s 764 mmHg 72%
    19:00 +16°C° 0 mm 2 m/s 764 mmHg 73%
    20:00 +16°C° 0 mm 2 m/s 764 mmHg 75%
    21:00 +16°C° 0 mm 2 m/s 764 mmHg 75%
    22:00 +15°C° 0 mm 2 m/s 764 mmHg 76%
    23:00 +15°C° 0 mm 2 m/s 764 mmHg 76%

    Amanhã, 20 Novembro, Quarta-feira

    Tempo Temperatura Precipitação Vento Pressão Humidade
    00:00 +15°C° 0 mm 2 m/s 764 mmHg 78%
    01:00 +15°C° 0 mm 2 m/s 764 mmHg 80%
    02:00 +14°C° 0 mm 2 m/s 764 mmHg 82%
    03:00 +14°C° 0 mm 2 m/s 763 mmHg 84%
    04:00 +14°C° 0 mm 2 m/s 763 mmHg 87%
    05:00 +13°C° 0 mm 3 m/s 763 mmHg 89%
    06:00 +13°C° 0 mm 3 m/s 763 mmHg 90%
    07:00 +13°C° 0 mm 3 m/s 763 mmHg 91%
    08:00 +14°C° 0 mm 3 m/s 763 mmHg 92%
    09:00 +16°C° 0 mm 3 m/s 763 mmHg 84%
    10:00 +17°C° 0 mm 4 m/s 763 mmHg 76%
    11:00 +19°C° 0 mm 4 m/s 763 mmHg 68%
    12:00 +19°C° 0 mm 4 m/s 762 mmHg 67%
    13:00 +19°C° 0 mm 4 m/s 762 mmHg 65%
    14:00 +19°C° 0 mm 4 m/s 762 mmHg 63%
    15:00 +18°C° 0 mm 4 m/s 762 mmHg 71%
    16:00 +17°C° 0 mm 3 m/s 761 mmHg 78%
    17:00 +14°C° 0 mm 3 m/s 761 mmHg 85%
    18:00 +14°C° 0 mm 3 m/s 761 mmHg 85%
    19:00 +14°C° 0 mm 3 m/s 761 mmHg 86%
    20:00 +14°C° 0 mm 3 m/s 762 mmHg 86%
    21:00 +14°C° 0 mm 3 m/s 762 mmHg 84%
    22:00 +14°C° 0 mm 3 m/s 762 mmHg 82%
    23:00 +15°C° 0 mm 2 m/s 762 mmHg 80%

    Depois de amanhã, 21 Novembro, Quinta-feira

    Tempo Temperatura Precipitação Vento Pressão Humidade
    00:00 +15°C° 0 mm 2 m/s 761 mmHg 79%
    01:00 +15°C° 0 mm 2 m/s 761 mmHg 78%
    02:00 +15°C° 0 mm 2 m/s 761 mmHg 78%
    03:00 +14°C° 0 mm 2 m/s 761 mmHg 79%
    04:00 +14°C° 0 mm 2 m/s 761 mmHg 80%
    05:00 +14°C° 0 mm 2 m/s 761 mmHg 81%
    06:00 +15°C° 0 mm 2 m/s 761 mmHg 82%
    07:00 +15°C° 0 mm 2 m/s 761 mmHg 83%
    08:00 +15°C° 0 mm 2 m/s 761 mmHg 84%
    09:00 +16°C° 0 mm 3 m/s 761 mmHg 83%
    10:00 +16°C° 0 mm 3 m/s 761 mmHg 81%
    11:00 +17°C° 0 mm 3 m/s 761 mmHg 79%
    12:00 +17°C° 0 mm 3 m/s 761 mmHg 80%
    13:00 +17°C° 0 mm 4 m/s 761 mmHg 81%
    14:00 +17°C° 0 mm 4 m/s 761 mmHg 83%
    15:00 +15°C° 0 mm 4 m/s 760 mmHg 85%
    16:00 +15°C° 0 mm 4 m/s 760 mmHg 87%
    17:00 +14°C° 0 mm 4 m/s 760 mmHg 89%
    18:00 +14°C° 0 mm 5 m/s 761 mmHg 89%
    19:00 +14°C° 0 mm 5 m/s 761 mmHg 88%
    20:00 +14°C° 0 mm 5 m/s 761 mmHg 88%
    21:00 +14°C° 0 mm 5 m/s 761 mmHg 87%
    22:00 +14°C° 0 mm 6 m/s 761 mmHg 87%
    23:00 +14°C° 0 mm 6 m/s 762 mmHg 86%

    22 Novembro, Sexta-feira

    Tempo Temperatura Precipitação Vento Pressão Humidade
    00:00 +14°C° 0.1 mm 6 m/s 761 mmHg 86%
    01:00 +14°C° 0.1 mm 6 m/s 761 mmHg 86%
    02:00 +13°C° 0.1 mm 6 m/s 761 mmHg 86%
    03:00 +13°C° 0.1 mm 6 m/s 761 mmHg 86%
    04:00 +13°C° 0.1 mm 6 m/s 761 mmHg 86%
    05:00 +13°C° 0.1 mm 6 m/s 761 mmHg 86%
    06:00 +12°C° 0.1 mm 7 m/s 761 mmHg 85%
    07:00 +12°C° 0.1 mm 7 m/s 761 mmHg 85%
    08:00 +12°C° 0.1 mm 7 m/s 762 mmHg 84%
    09:00 +12°C° 0.1 mm 7 m/s 762 mmHg 83%
    10:00 +12°C° 0.1 mm 7 m/s 762 mmHg 82%
    11:00 +12°C° 0.1 mm 7 m/s 762 mmHg 81%
    12:00 +12°C° 0.1 mm 7 m/s 762 mmHg 81%
    13:00 +12°C° 0.1 mm 7 m/s 761 mmHg 82%
    14:00 +12°C° 0.1 mm 7 m/s 761 mmHg 83%
    15:00 +11°C° 0.1 mm 7 m/s 761 mmHg 83%
    16:00 +11°C° 0.1 mm 7 m/s 761 mmHg 83%
    17:00 +11°C° 0.1 mm 7 m/s 761 mmHg 83%
    18:00 +11°C° 0.1 mm 7 m/s 762 mmHg 84%
    19:00 +11°C° 0.1 mm 7 m/s 762 mmHg 84%
    20:00 +11°C° 0.1 mm 7 m/s 762 mmHg 85%
    21:00 +11°C° 0 mm 6 m/s 762 mmHg 85%
    22:00 +13°C° 0 mm 6 m/s 762 mmHg 86%
    23:00 +13°C° 0 mm 6 m/s 762 mmHg 86%

    23 Novembro, Sábado

    Tempo Temperatura Precipitação Vento Pressão Humidade
    00:00 +13°C° 0.1 mm 5 m/s 762 mmHg 86%
    01:00 +13°C° 0.1 mm 5 m/s 762 mmHg 86%
    02:00 +13°C° 0.1 mm 5 m/s 762 mmHg 85%
    03:00 +13°C° 0.1 mm 5 m/s 762 mmHg 86%
    04:00 +13°C° 0.1 mm 5 m/s 762 mmHg 87%
    05:00 +13°C° 0.1 mm 5 m/s 761 mmHg 88%
    06:00 +13°C° 0.2 mm 5 m/s 761 mmHg 87%
    07:00 +13°C° 0.2 mm 5 m/s 762 mmHg 86%
    08:00 +13°C° 0.2 mm 5 m/s 762 mmHg 86%
    09:00 +14°C° 0.1 mm 5 m/s 762 mmHg 84%
    10:00 +14°C° 0.1 mm 5 m/s 762 mmHg 82%
    11:00 +14°C° 0.1 mm 5 m/s 762 mmHg 81%
    12:00 +14°C° 0.1 mm 5 m/s 761 mmHg 81%
    13:00 +14°C° 0.1 mm 5 m/s 761 mmHg 81%
    14:00 +14°C° 0.1 mm 5 m/s 761 mmHg 81%
    15:00 +14°C° 0.5 mm 5 m/s 761 mmHg 84%
    16:00 +14°C° 0.5 mm 5 m/s 760 mmHg 86%
    17:00 +13°C° 0.5 mm 6 m/s 760 mmHg 89%
    18:00 +13°C° 0.4 mm 6 m/s 760 mmHg 89%
    19:00 +13°C° 0.4 mm 6 m/s 760 mmHg 89%
    20:00 +13°C° 0.4 mm 5 m/s 761 mmHg 89%
    21:00 +13°C° 0.2 mm 6 m/s 761 mmHg 88%
    22:00 +14°C° 0.2 mm 6 m/s 761 mmHg 87%
    23:00 +14°C° 0.2 mm 6 m/s 761 mmHg 87%

    24 Novembro, Domingo

    Tempo Temperatura Precipitação Vento Pressão Humidade
    00:00 +14°C° 0.1 mm 6 m/s 761 mmHg 87%
    01:00 +14°C° 0.1 mm 5 m/s 761 mmHg 87%
    02:00 +13°C° 0.1 mm 5 m/s 761 mmHg 87%
    03:00 +13°C° 0.1 mm 5 m/s 761 mmHg 87%
    04:00 +13°C° 0.1 mm 5 m/s 760 mmHg 87%
    05:00 +13°C° 0.1 mm 5 m/s 760 mmHg 87%
    06:00 +13°C° 0.2 mm 5 m/s 761 mmHg 87%
    07:00 +13°C° 0.2 mm 5 m/s 761 mmHg 87%
    08:00 +14°C° 0.2 mm 5 m/s 761 mmHg 88%
    09:00 +14°C° 0.3 mm 5 m/s 761 mmHg 87%
    10:00 +14°C° 0.3 mm 5 m/s 761 mmHg 87%
    11:00 +14°C° 0.3 mm 5 m/s 762 mmHg 86%
    12:00 +14°C° 0.2 mm 5 m/s 761 mmHg 87%
    13:00 +14°C° 0.2 mm 5 m/s 761 mmHg 87%
    14:00 +14°C° 0.2 mm 5 m/s 761 mmHg 88%
    15:00 +14°C° 0.2 mm 5 m/s 761 mmHg 89%
    16:00 +13°C° 0.2 mm 5 m/s 761 mmHg 90%
    17:00 +13°C° 0.2 mm 6 m/s 761 mmHg 90%
    18:00 +13°C° 0.2 mm 5 m/s 761 mmHg 90%
    19:00 +13°C° 0.2 mm 5 m/s 761 mmHg 90%
    20:00 +13°C° 0.2 mm 5 m/s 761 mmHg 89%
    21:00 +13°C° 0 mm 5 m/s 761 mmHg 89%
    22:00 +13°C° 0 mm 4 m/s 761 mmHg 88%
    23:00 +13°C° 0 mm 4 m/s 761 mmHg 87%
    Mostrar mais